Flag for New Zealand Weather past 2 weeks in Wellington, New Zealand

Now
54 °F

Light rain. Partly sunny.


Feels Like: 49 °F
Forecast: 51 / 55 °F
Wind: 16 mph from North

Location: Wellington Airport

Current Time: Sep 19, 2014 at 6:01:54 AM

Latest Report: Sep 19, 2014 at 5:30 AM


Visibility: N/A

Pressure: 29.50 "Hg

Humidity: 94%

Dew point: 52 °F

Location of WellingtonLocation

Historic Weather in Wellington — Graph

°F

Wellington temperature yesterday

Maximum temperature yesterday: 59 °F (at 11:30 AM)
Minimum temperature yesterday: 48 °F (at 3:30 AM)
Average temperature yesterday: 53 °F

Past Weeks' High & Low Weather Summary

 TemperatureHumidityPressure
High64 °F (Sep 12, 2:00 PM)100% (Sep 6, 4:30 AM)30.39 "Hg (Sep 6, 4:30 AM)
Low45 °F (Sep 15, 2:00 AM)48% (Sep 17, 9:30 AM)29.47 "Hg (Sep 19, 4:30 AM)
Average53 °F79%29.95 "Hg
* Reported Sep 4 5:00 AM — Sep 19 5:00 AM, Wellington, Weather by CustomWeather, © 2014

Note: Actual official high and low records may vary slightly from our data, if they occured in-between our weather recording intervals... More about our weather records

Advertising

Wellington weather history for previous 24 hours

 ConditionsComfort  
Time TempWeatherWind HumidityBarometerVisibility
5:00 AM
Sep 19
54 °FLight rain. Passing clouds.17 mph88%29.50 "HgN/A
4:30 AM54 °FLight rain. Partly cloudy.15 mph88%29.47 "HgN/A
4:00 AM54 °FLight rain. Passing clouds.9 mph88%29.50 "HgN/A
3:30 AM55 °FSprinkles. Partly cloudy.14 mph88%29.50 "HgN/A
3:00 AM55 °FRain showers. Partly cloudy.18 mph94%29.50 "Hg4 mi
2:30 AM57 °FOvercast.18 mph88%29.53 "HgN/A
2:00 AM57 °FPassing clouds.21 mph88%29.56 "HgN/A
1:30 AM57 °FPassing clouds.18 mph88%29.56 "HgN/A
1:00 AM57 °FOvercast.18 mph88%29.56 "HgN/A
12:30 AM55 °FPassing clouds.15 mph94%29.59 "HgN/A
12:00 AM55 °FMostly cloudy.16 mph94%29.59 "HgN/A
11:30 PM
Sep 18
57 °FOvercast.16 mph88%29.62 "HgN/A
11:00 PM57 °FOvercast.18 mph88%29.62 "HgN/A
10:30 PM55 °FOvercast.18 mph94%29.65 "HgN/A
10:00 PM55 °FOvercast.20 mph88%29.65 "HgN/A
9:30 PM55 °FSprinkles. Passing clouds.21 mph88%29.68 "Hg6 mi
9:00 PM55 °FPassing clouds.22 mph88%29.68 "HgN/A
8:30 PM55 °FPassing clouds.23 mph88%29.68 "HgN/A
8:00 PM54 °FLight rain. Partly cloudy.20 mph94%29.71 "Hg5 mi
7:30 PM54 °FSprinkles. Partly cloudy.20 mph94%29.71 "HgN/A
7:00 PM52 °FPartly cloudy.13 mph94%29.71 "HgN/A
6:30 PM52 °FLight rain. Passing clouds.10 mph94%29.74 "HgN/A
6:00 PM52 °FRain. Passing clouds.10 mph94%29.74 "Hg6 mi
5:30 PM52 °FLight rain. Mostly cloudy.17 mph94%29.77 "HgN/A
5:00 PM52 °FSprinkles. Partly sunny.18 mph94%29.77 "HgN/A
4:30 PM54 °FBroken clouds.21 mph88%29.80 "HgN/A
4:00 PM52 °FSprinkles. Partly sunny.18 mph88%29.80 "HgN/A
3:30 PM52 °FSprinkles. Broken clouds.22 mph88%29.80 "HgN/A
2:30 PM57 °FBroken clouds.24 mph63%29.83 "HgN/A
2:00 PM57 °FBroken clouds.20 mph67%29.86 "HgN/A
1:30 PM57 °FBroken clouds.22 mph63%29.86 "HgN/A
1:00 PM57 °FBroken clouds.17 mph63%29.89 "HgN/A
12:30 PM57 °FBroken clouds.20 mph67%29.89 "HgN/A
12:00 PM57 °FPassing clouds.15 mph67%29.92 "HgN/A
11:30 AM59 °FPassing clouds.17 mph63%29.92 "HgN/A
11:00 AM57 °FPartly sunny.20 mph67%29.92 "HgN/A
10:30 AM57 °FPartly sunny.17 mph67%29.95 "HgN/A
10:00 AM55 °FPassing clouds.12 mph72%29.95 "HgN/A
9:30 AM55 °FCool.15 mph72%29.95 "HgN/A
9:00 AM54 °FCool.10 mph72%29.95 "HgN/A
8:30 AM52 °FPassing clouds.12 mph72%29.95 "HgN/A
8:00 AM50 °FPartly sunny.8 mph76%29.95 "HgN/A
7:30 AM48 °FPartly sunny.8 mph82%29.95 "HgN/A
7:00 AM48 °FMore clouds than sun.8 mph82%29.98 "HgN/A
6:30 AM48 °FOvercast.7 mph76%29.98 "HgN/A
6:00 AM48 °FPartly sunny.6 mph76%29.95 "HgN/A
Weather by CustomWeather, © 2014

See weather overviewHow to use our weather pages